Back to catalog

DELTA 1 DEB

AliveSSO
NORAD 12533·DEBRIS·🇺🇸 United States

Launched Jul 29, 1976 from Vandenberg Space Force Base

Loading…

Next Passes (next 24 hours)

TLE

FreshSource: Space-Track

Epoch: Sep 14, 2026, 08:21 UTC

1 12533U 76077DN  26257.34847729  .00000547  00000-0  39882-2 0  9995
2 12533 101.7427 221.5586 0052658 105.1747  54.0776 12.47551346167403

Track DELTA 1 DEB in real time with AllMySat

Download on the App Store